Location: Dackenheim
(49.5215°N, 8.1854°E)
Time: 00:39:45
(UTC+00:00)

Cosmos 2074 Rocket - Pass Details

Date: 19 May 2025
Orbit: 965 x 986 km, 82.9° (Epoch: 15 June)

Event Time Altitude Azimuth Distance (km) Brightness Sun altitude
Rises 19:39:28 0° 350° (N) 3,680 7.9 -4.6°
Reaches altitude 10° 19:42:00 10° 351° (N) 2,726 7.2 -5.0°
Maximum altitude 19:48:15 89° 80° (E) 975 4.1 -5.7°
Drops below altitude 10° 19:54:27 10° 172° (S) 2,699 5.9 -6.5°
Sets 19:56:56 0° 173° (S) 3,641 6.5 -6.8°
